Time,TemperatureF,DewpointF,PressureIn,WindDirection,WindDirectionDegrees,WindSpeedMPH,WindSpeedGustMPH,Humidity,HourlyPrecipIn,Conditions,Clouds,dailyrainin,SolarRadiationWatts/m^2,SoftwareType,DateUTC
2017-05-26 00:00:00,79.6,66.8,29.58,SSW,200,5.0,5.0,65,0.00,,,0.00,0,Wunderground v.1.15,2017-05-26 05:00:00,
2017-05-26 00:10:00,79.5,66.7,29.58,SSW,202,5.0,5.0,65,0.00,,,0.00,0,Wunderground v.1.15,2017-05-26 05:10:00,
2017-05-26 00:20:00,79.6,67.2,29.58,SSW,203,7.0,7.0,66,0.00,,,0.00,0,Wunderground v.1.15,2017-05-26 05:20:00,
2017-05-26 00:25:00,79.6,67.2,29.58,SSW,196,7.0,7.0,66,0.00,,,0.00,0,Wunderground v.1.15,2017-05-26 05:25:00,
2017-05-26 00:30:00,79.4,67.0,29.57,South,180,7.0,7.0,66,0.00,,,0.00,0,Wunderground v.1.15,2017-05-26 05:30:00,
2017-05-26 00:40:00,79.5,67.6,29.58,SSW,205,9.0,9.0,67,0.00,,,0.00,0,Wunderground v.1.15,2017-05-26 05:40:00,
2017-05-26 00:45:00,79.4,67.5,29.58,SW,217,8.0,11.0,67,0.00,,,0.00,0,Wunderground v.1.15,2017-05-26 05:45:00,
2017-05-26 00:50:00,79.5,67.6,29.58,SSW,192,7.0,10.0,67,0.00,,,0.00,0,Wunderground v.1.15,2017-05-26 05:50:00,
2017-05-26 00:55:00,79.5,67.6,29.58,SSW,197,8.0,10.0,67,0.00,,,0.00,0,Wunderground v.1.15,2017-05-26 05:55:00,
2017-05-26 01:00:00,79.4,67.9,29.57,SSW,198,9.0,14.0,68,0.00,,,0.00,0,Wunderground v.1.15,2017-05-26 06:00:00,
2017-05-26 01:05:00,79.4,67.9,29.57,South,190,9.0,14.0,68,0.00,,,0.00,0,Wunderground v.1.15,2017-05-26 06:05:00,
2017-05-26 01:10:00,79.3,67.8,29.57,SSE,166,10.0,14.0,68,0.00,,,0.00,0,Wunderground v.1.15,2017-05-26 06:10:00,
2017-05-26 01:20:00,79.1,68.1,29.58,SSW,201,10.0,10.0,69,0.00,,,0.00,0,Wunderground v.1.15,2017-05-26 06:20:00,
2017-05-26 01:25:00,79.0,68.0,29.58,South,186,10.0,10.0,69,0.00,,,0.00,0,Wunderground v.1.15,2017-05-26 06:25:00,
2017-05-26 01:30:00,78.9,68.3,29.58,SW,224,9.0,9.0,70,0.00,,,0.00,0,Wunderground v.1.15,2017-05-26 06:30:00,
2017-05-26 01:40:00,78.8,68.2,29.58,SSW,205,10.0,10.0,70,0.00,,,0.00,0,Wunderground v.1.15,2017-05-26 06:40:00,
2017-05-26 01:45:00,78.7,68.5,29.58,SSW,192,9.0,10.0,71,0.00,,,0.00,0,Wunderground v.1.15,2017-05-26 06:45:00,
2017-05-26 01:55:00,78.6,68.4,29.58,SSW,192,9.0,17.0,71,0.00,,,0.00,0,Wunderground v.1.15,2017-05-26 06:55:00,
2017-05-26 02:00:00,78.7,68.5,29.58,SSW,209,11.0,11.0,71,0.00,,,0.00,0,Wunderground v.1.15,2017-05-26 07:00:00,
2017-05-26 02:10:00,78.4,68.6,29.58,South,190,8.0,8.0,72,0.00,,,0.00,0,Wunderground v.1.15,2017-05-26 07:10:00,
2017-05-26 02:15:00,78.3,68.9,29.58,SW,223,9.0,12.0,73,0.00,,,0.00,0,Wunderground v.1.15,2017-05-26 07:15:00,
2017-05-26 02:25:00,78.2,68.8,29.58,SSW,205,10.0,10.0,73,0.00,,,0.00,0,Wunderground v.1.15,2017-05-26 07:25:00,
2017-05-26 02:30:00,78.1,68.7,29.58,SW,215,9.0,9.0,73,0.00,,,0.00,0,Wunderground v.1.15,2017-05-26 07:30:00,
2017-05-26 02:35:00,78.0,69.0,29.58,SSW,210,9.0,9.0,74,0.00,,,0.00,0,Wunderground v.1.15,2017-05-26 07:35:00,
2017-05-26 02:45:00,77.8,68.8,29.58,SW,219,9.0,11.0,74,0.00,,,0.00,0,Wunderground v.1.15,2017-05-26 07:45:00,
2017-05-26 02:50:00,77.7,69.1,29.59,South,190,10.0,13.0,75,0.00,,,0.00,0,Wunderground v.1.15,2017-05-26 07:50:00,
2017-05-26 02:55:00,77.6,69.0,29.59,SSW,203,10.0,13.0,75,0.00,,,0.00,0,Wunderground v.1.15,2017-05-26 07:55:00,
2017-05-26 03:00:00,77.5,68.9,29.59,South,180,10.0,10.0,75,0.00,,,0.00,0,Wunderground v.1.15,2017-05-26 08:00:00,
2017-05-26 03:10:00,77.4,69.2,29.59,SSW,207,11.0,11.0,76,0.00,,,0.00,0,Wunderground v.1.15,2017-05-26 08:10:00,
2017-05-26 03:20:00,77.1,68.9,29.59,SSW,205,10.0,19.0,76,0.00,,,0.00,0,Wunderground v.1.15,2017-05-26 08:20:00,
2017-05-26 03:30:00,77.1,69.3,29.59,SSW,203,11.0,15.0,77,0.00,,,0.00,0,Wunderground v.1.15,2017-05-26 08:30:00,
2017-05-26 03:35:00,77.1,69.3,29.59,SSW,205,12.0,15.0,77,0.00,,,0.00,0,Wunderground v.1.15,2017-05-26 08:35:00,
2017-05-26 03:40:00,76.9,69.1,29.59,South,175,12.0,12.0,77,0.00,,,0.00,0,Wunderground v.1.15,2017-05-26 08:40:00,
2017-05-26 03:50:00,76.8,69.4,29.59,SSW,192,12.0,12.0,78,0.00,,,0.00,0,Wunderground v.1.15,2017-05-26 08:50:00,
2017-05-26 03:55:00,76.7,69.3,29.60,SSW,199,11.0,12.0,78,0.00,,,0.00,0,Wunderground v.1.15,2017-05-26 08:55:00,
2017-05-26 04:01:00,76.6,69.2,29.60,SW,221,10.0,10.0,78,0.00,,,0.00,0,Wunderground v.1.15,2017-05-26 09:01:00,
2017-05-26 04:10:00,76.5,69.5,29.60,South,180,10.0,10.0,79,0.00,,,0.00,0,Wunderground v.1.15,2017-05-26 09:10:00,
2017-05-26 04:15:00,76.4,69.4,29.60,SSW,205,10.0,10.0,79,0.00,,,0.00,0,Wunderground v.1.15,2017-05-26 09:15:00,
2017-05-26 04:20:00,76.3,69.7,29.60,SW,225,10.0,10.0,80,0.00,,,0.00,0,Wunderground v.1.15,2017-05-26 09:20:00,
2017-05-26 04:30:00,76.0,69.4,29.61,SSW,198,9.0,15.0,80,0.00,,,0.00,0,Wunderground v.1.15,2017-05-26 09:30:00,
2017-05-26 04:40:00,75.8,69.6,29.61,SSW,192,8.0,8.0,81,0.00,,,0.00,0,Wunderground v.1.15,2017-05-26 09:40:00,
2017-05-26 04:45:00,75.7,69.8,29.62,SSW,202,8.0,8.0,82,0.00,,,0.00,0,Wunderground v.1.15,2017-05-26 09:45:00,
2017-05-26 04:55:00,75.5,69.6,29.62,South,175,7.0,8.0,82,0.00,,,0.00,0,Wunderground v.1.15,2017-05-26 09:55:00,
2017-05-26 05:00:00,75.4,69.5,29.62,SSW,203,7.0,7.0,82,0.00,,,0.00,0,Wunderground v.1.15,2017-05-26 10:00:00,
2017-05-26 05:05:00,75.3,69.4,29.62,South,175,7.0,26.0,82,0.00,,,0.00,0,Wunderground v.1.15,2017-05-26 10:05:00,
2017-05-26 05:10:00,75.1,69.6,29.62,SSW,205,6.0,26.0,83,0.00,,,0.00,0,Wunderground v.1.15,2017-05-26 10:10:00,
2017-05-26 05:15:00,75.1,69.6,29.62,South,180,6.0,26.0,83,0.00,,,0.00,0,Wunderground v.1.15,2017-05-26 10:15:00,
2017-05-26 05:20:00,75.0,69.5,29.62,South,175,6.0,6.0,83,0.00,,,0.00,0,Wunderground v.1.15,2017-05-26 10:20:00,
2017-05-26 05:25:00,74.9,69.7,29.62,SSE,163,6.0,26.0,84,0.00,,,0.00,0,Wunderground v.1.15,2017-05-26 10:25:00,
2017-05-26 05:35:00,74.9,69.7,29.63,SSW,193,6.0,26.0,84,0.00,,,0.00,0,Wunderground v.1.15,2017-05-26 10:35:00,
2017-05-26 05:40:00,74.9,69.7,29.63,SSW,207,6.0,26.0,84,0.00,,,0.00,0,Wunderground v.1.15,2017-05-26 10:40:00,
2017-05-26 05:45:00,74.8,69.6,29.63,SSW,205,6.0,26.0,84,0.00,,,0.00,0,Wunderground v.1.15,2017-05-26 10:45:00,
2017-05-26 05:55:00,74.8,70.0,29.64,SSE,153,7.0,26.0,85,0.00,,,0.00,0,Wunderground v.1.15,2017-05-26 10:55:00,
2017-05-26 06:00:00,74.7,69.9,29.63,South,180,7.0,7.0,85,0.00,,,0.00,0,Wunderground v.1.15,2017-05-26 11:00:00,
2017-05-26 06:10:00,74.8,70.0,29.63,SSW,204,8.0,26.0,85,0.00,,,0.00,0,Wunderground v.1.15,2017-05-26 11:10:00,
2017-05-26 06:15:00,74.8,70.0,29.63,South,184,9.0,26.0,85,0.00,,,0.00,0,Wunderground v.1.15,2017-05-26 11:15:00,
2017-05-26 06:20:00,74.8,70.0,29.63,SW,220,9.0,9.0,85,0.00,,,0.00,0,Wunderground v.1.15,2017-05-26 11:20:00,
2017-05-26 06:25:00,74.8,70.0,29.63,SSW,198,9.0,10.0,85,0.00,,,0.00,0,Wunderground v.1.15,2017-05-26 11:25:00,
2017-05-26 06:35:00,74.8,70.3,29.63,SSW,195,9.0,26.0,86,0.00,,,0.00,7,Wunderground v.1.15,2017-05-26 11:35:00,
2017-05-26 06:45:00,74.7,70.2,29.64,SSW,203,9.0,26.0,86,0.00,,,0.00,21,Wunderground v.1.15,2017-05-26 11:45:00,
2017-05-26 06:55:00,74.8,70.3,29.64,South,184,7.0,11.0,86,0.00,,,0.00,46,Wunderground v.1.15,2017-05-26 11:55:00,
2017-05-26 07:05:00,75.1,70.6,29.64,SSW,203,8.0,26.0,86,0.00,,,0.00,72,Wunderground v.1.15,2017-05-26 12:05:00,
2017-05-26 07:10:00,75.3,70.8,29.64,SSW,205,8.0,26.0,86,0.00,,,0.00,76,Wunderground v.1.15,2017-05-26 12:10:00,
2017-05-26 07:20:00,75.7,70.9,29.65,SSW,207,8.0,26.0,85,0.00,,,0.00,118,Wunderground v.1.15,2017-05-26 12:20:00,
2017-05-26 07:25:00,75.9,71.1,29.65,South,190,7.0,26.0,85,0.00,,,0.00,79,Wunderground v.1.15,2017-05-26 12:25:00,
2017-05-26 07:35:00,76.0,71.2,29.65,SSW,201,7.0,12.0,85,0.00,,,0.00,142,Wunderground v.1.15,2017-05-26 12:35:00,
2017-05-26 07:40:00,76.1,71.3,29.66,SW,220,8.0,26.0,85,0.00,,,0.00,60,Wunderground v.1.15,2017-05-26 12:40:00,
2017-05-26 07:45:00,76.1,71.3,29.66,South,180,9.0,26.0,85,0.00,,,0.00,137,Wunderground v.1.15,2017-05-26 12:45:00,
2017-05-26 07:50:00,76.3,71.5,29.66,SSW,201,8.0,26.0,85,0.00,,,0.00,134,Wunderground v.1.15,2017-05-26 12:50:00,
2017-05-26 07:55:00,76.5,71.7,29.66,SSE,165,8.0,26.0,85,0.00,,,0.00,193,Wunderground v.1.15,2017-05-26 12:55:00,
2017-05-26 08:05:00,77.1,71.5,29.67,South,180,8.0,26.0,83,0.00,,,0.00,221,Wunderground v.1.15,2017-05-26 13:05:00,
2017-05-26 08:10:00,77.5,71.9,29.66,SW,215,7.0,26.0,83,0.00,,,0.00,230,Wunderground v.1.15,2017-05-26 13:10:00,
2017-05-26 08:20:00,77.7,71.8,29.67,SSW,213,9.0,9.0,82,0.00,,,0.00,248,Wunderground v.1.15,2017-05-26 13:20:00,
2017-05-26 08:25:00,78.0,72.1,29.67,South,170,9.0,26.0,82,0.00,,,0.00,283,Wunderground v.1.15,2017-05-26 13:25:00,
2017-05-26 08:35:00,78.6,72.3,29.68,SSW,197,8.0,11.0,81,0.00,,,0.00,325,Wunderground v.1.15,2017-05-26 13:35:00,
2017-05-26 08:40:00,78.7,72.4,29.69,SSW,213,9.0,26.0,81,0.00,,,0.00,339,Wunderground v.1.15,2017-05-26 13:40:00,
2017-05-26 08:50:00,79.0,72.3,29.68,South,190,10.0,10.0,80,0.00,,,0.00,274,Wunderground v.1.15,2017-05-26 13:50:00,
2017-05-26 08:55:00,79.4,72.7,29.68,SSW,194,9.0,12.0,80,0.00,,,0.00,369,Wunderground v.1.15,2017-05-26 13:55:00,
2017-05-26 09:05:00,79.9,72.8,29.69,SW,230,10.0,26.0,79,0.00,,,0.00,374,Wunderground v.1.15,2017-05-26 14:05:00,
2017-05-26 09:10:00,80.3,72.8,29.69,South,186,9.0,26.0,78,0.00,,,0.00,425,Wunderground v.1.15,2017-05-26 14:10:00,
2017-05-26 09:15:00,80.5,73.0,29.68,SSW,206,9.0,26.0,78,0.00,,,0.00,469,Wunderground v.1.15,2017-05-26 14:15:00,
2017-05-26 09:20:00,80.6,73.1,29.69,SSW,205,11.0,11.0,78,0.00,,,0.00,454,Wunderground v.1.15,2017-05-26 14:20:00,
2017-05-26 09:30:00,81.4,73.5,29.69,SSW,197,10.0,10.0,77,0.00,,,0.00,492,Wunderground v.1.15,2017-05-26 14:30:00,
2017-05-26 09:40:00,82.0,73.3,29.69,SW,226,9.0,26.0,75,0.00,,,0.00,512,Wunderground v.1.15,2017-05-26 14:40:00,
2017-05-26 09:50:00,82.4,73.7,29.69,SSW,199,13.0,26.0,75,0.00,,,0.00,538,Wunderground v.1.15,2017-05-26 14:50:00,
2017-05-26 10:00:00,83.3,73.7,29.69,SW,235,12.0,26.0,73,0.00,,,0.00,564,Wunderground v.1.15,2017-05-26 15:00:00,
2017-05-26 10:05:00,83.7,74.1,29.69,SSW,203,12.0,26.0,73,0.00,,,0.00,582,Wunderground v.1.15,2017-05-26 15:05:00,
2017-05-26 10:10:00,83.8,74.2,29.69,SW,216,13.0,13.0,73,0.00,,,0.00,596,Wunderground v.1.15,2017-05-26 15:10:00,
2017-05-26 10:20:00,84.8,74.3,29.68,SSE,164,13.0,26.0,71,0.00,,,0.00,622,Wunderground v.1.15,2017-05-26 15:20:00,
2017-05-26 10:25:00,84.8,74.3,29.69,SSW,207,13.0,26.0,71,0.00,,,0.00,633,Wunderground v.1.15,2017-05-26 15:25:00,
2017-05-26 10:35:00,85.5,74.2,29.69,SSW,209,11.0,26.0,69,0.00,,,0.00,659,Wunderground v.1.15,2017-05-26 15:35:00,
2017-05-26 10:45:00,86.1,74.3,29.70,SW,214,11.0,17.0,68,0.00,,,0.00,684,Wunderground v.1.15,2017-05-26 15:45:00,
2017-05-26 10:50:00,86.3,74.9,29.69,South,184,10.0,10.0,69,0.00,,,0.00,698,Wunderground v.1.15,2017-05-26 15:50:00,
2017-05-26 10:55:00,86.8,74.5,29.70,SW,227,9.0,13.0,67,0.00,,,0.00,712,Wunderground v.1.15,2017-05-26 15:55:00,
2017-05-26 11:05:00,88.1,74.8,29.70,South,184,7.0,26.0,65,0.00,,,0.00,724,Wunderground v.1.15,2017-05-26 16:05:00,
2017-05-26 11:15:00,88.1,74.8,29.69,SW,228,12.0,26.0,65,0.00,,,0.00,745,Wunderground v.1.15,2017-05-26 16:15:00,
2017-05-26 11:25:00,88.9,74.7,29.69,South,180,10.0,26.0,63,0.00,,,0.00,766,Wunderground v.1.15,2017-05-26 16:25:00,
2017-05-26 11:30:00,88.9,74.7,29.70,South,190,10.0,26.0,63,0.00,,,0.00,770,Wunderground v.1.15,2017-05-26 16:30:00,
2017-05-26 11:35:00,88.9,75.6,29.70,WSW,243,11.0,26.0,65,0.00,,,0.00,786,Wunderground v.1.15,2017-05-26 16:35:00,
2017-05-26 11:45:00,89.9,74.6,29.70,SW,236,11.0,26.0,61,0.00,,,0.00,800,Wunderground v.1.15,2017-05-26 16:45:00,
2017-05-26 11:50:00,89.9,75.1,29.70,SSW,210,12.0,12.0,62,0.00,,,0.00,805,Wunderground v.1.15,2017-05-26 16:50:00,
2017-05-26 12:00:00,90.1,74.8,29.70,SW,217,7.0,7.0,61,0.00,,,0.00,819,Wunderground v.1.15,2017-05-26 17:00:00,
2017-05-26 12:05:00,90.4,75.1,29.70,WSW,238,10.0,11.0,61,0.00,,,0.00,833,Wunderground v.1.15,2017-05-26 17:05:00,
2017-05-26 12:10:00,91.2,74.9,29.70,SSW,205,10.0,10.0,59,0.00,,,0.00,837,Wunderground v.1.15,2017-05-26 17:10:00,
2017-05-26 12:20:00,91.6,74.7,29.70,WSW,247,10.0,10.0,58,0.00,,,0.00,856,Wunderground v.1.15,2017-05-26 17:20:00,
2017-05-26 12:25:00,91.9,75.0,29.70,SW,224,9.0,26.0,58,0.00,,,0.00,849,Wunderground v.1.15,2017-05-26 17:25:00,
2017-05-26 12:35:00,92.4,75.5,29.70,SSW,203,9.0,26.0,58,0.00,,,0.00,854,Wunderground v.1.15,2017-05-26 17:35:00,
2017-05-26 12:40:00,92.3,74.9,29.70,WSW,239,10.0,26.0,57,0.00,,,0.00,868,Wunderground v.1.15,2017-05-26 17:40:00,
2017-05-26 12:50:00,92.8,74.3,29.69,SW,214,11.0,11.0,55,0.00,,,0.00,877,Wunderground v.1.15,2017-05-26 17:50:00,
2017-05-26 13:00:00,93.1,74.5,29.69,SSW,197,9.0,26.0,55,0.00,,,0.00,881,Wunderground v.1.15,2017-05-26 18:00:00,
2017-05-26 13:05:00,93.1,74.0,29.69,SW,230,12.0,26.0,54,0.00,,,0.00,888,Wunderground v.1.15,2017-05-26 18:05:00,
2017-05-26 13:10:00,94.1,75.5,29.69,SSW,194,10.0,10.0,55,0.00,,,0.00,888,Wunderground v.1.15,2017-05-26 18:10:00,
2017-05-26 13:20:00,93.8,74.6,29.69,SSW,192,10.0,10.0,54,0.00,,,0.00,909,Wunderground v.1.15,2017-05-26 18:20:00,
2017-05-26 13:25:00,93.6,73.9,29.68,WSW,239,9.0,14.0,53,0.00,,,0.00,830,Wunderground v.1.15,2017-05-26 18:25:00,
2017-05-26 13:30:00,93.9,74.7,29.68,SSW,201,8.0,8.0,54,0.00,,,0.00,909,Wunderground v.1.15,2017-05-26 18:30:00,
2017-05-26 13:40:00,94.3,75.1,29.68,SW,230,7.0,26.0,54,0.00,,,0.00,823,Wunderground v.1.15,2017-05-26 18:40:00,
2017-05-26 13:50:00,95.1,74.7,29.68,SSW,197,9.0,9.0,52,0.00,,,0.00,881,Wunderground v.1.15,2017-05-26 18:50:00,
2017-05-26 14:05:00,95.1,74.1,29.68,South,191,7.0,26.0,51,0.00,,,0.00,886,Wunderground v.1.15,2017-05-26 19:05:00,
2017-05-26 14:10:00,94.9,74.5,29.68,SW,216,7.0,7.0,52,0.00,,,0.00,868,Wunderground v.1.15,2017-05-26 19:10:00,
2017-05-26 14:15:00,95.3,73.7,29.68,South,187,8.0,8.0,50,0.00,,,0.00,870,Wunderground v.1.15,2017-05-26 19:15:00,
2017-05-26 14:25:00,95.5,73.3,29.68,South,191,9.0,26.0,49,0.00,,,0.00,870,Wunderground v.1.15,2017-05-26 19:25:00,
2017-05-26 14:35:00,96.2,74.5,29.68,SW,232,7.0,26.0,50,0.00,,,0.00,877,Wunderground v.1.15,2017-05-26 19:35:00,
2017-05-26 14:45:00,96.2,73.3,29.68,SW,230,8.0,11.0,48,0.00,,,0.00,872,Wunderground v.1.15,2017-05-26 19:45:00,
2017-05-26 14:55:00,96.0,75.0,29.68,South,184,7.0,26.0,51,0.00,,,0.00,844,Wunderground v.1.15,2017-05-26 19:55:00,
2017-05-26 15:00:00,96.2,73.9,29.67,SSW,211,5.0,26.0,49,0.00,,,0.00,668,Wunderground v.1.15,2017-05-26 20:00:00,
2017-05-26 15:05:00,96.0,73.8,29.68,SSW,207,7.0,26.0,49,0.00,,,0.00,826,Wunderground v.1.15,2017-05-26 20:05:00,
2017-05-26 15:10:00,96.1,73.2,29.67,SE,143,8.0,8.0,48,0.00,,,0.00,807,Wunderground v.1.15,2017-05-26 20:10:00,
2017-05-26 15:15:00,96.2,73.9,29.67,WSW,241,9.0,9.0,49,0.00,,,0.00,798,Wunderground v.1.15,2017-05-26 20:15:00,